Location: Monroe
(41.9160°N, 83.3980°W)
Time: 12:00:53
(UTC-04:00)

ISS - All Passes

Search period start: 28 May 2015 00:00
Search period end: 07 June 2015 00:00
Orbit: 399 x 404 km, 51.6° (Epoch: 28 May)

Date Brightness Start Highest point End Pass type
(mag) Time Alt. Az. Time Alt. Az. Time Alt. Az.
28 May - 01:30:48 10° W 01:33:41 28° NNW 01:36:34 10° NE visible
28 May - 03:08:54 10° NW 03:10:53 15° N 03:12:51 10° NE visible
28 May - 04:45:34 10° NW 04:48:10 21° NNE 04:50:47 10° ENE visible
28 May - 06:21:39 10° NW 06:24:56 85° SSW 06:28:11 10° SE daylight
28 May - 23:01:26 10° S 23:04:03 23° SE 23:06:42 10° E night (unlit)
29 May - 00:37:12 10° WSW 00:40:19 43° NNW 00:43:27 10° NE visible
29 May - 02:15:11 10° NW 02:17:21 16° N 02:19:31 10° NNE visible
29 May - 03:52:25 10° NNW 03:54:41 17° N 03:56:58 10° NE visible
29 May - 05:28:27 10° NW 05:31:39 52° NNE 05:34:52 10° ESE visible
29 May - 07:05:26 10° W 07:07:51 19° SW 07:10:12 10° S daylight
29 May - 22:09:43 10° SSE 22:10:59 12° SE 22:12:22 10° ESE night (unlit)
29 May - 23:43:46 10° WSW 23:47:01 78° NW 23:50:17 10° NE visible
30 May - 01:21:22 10° WNW 01:23:51 20° NNW 01:26:19 10° NE visible
30 May - 02:59:08 10° NNW 03:01:09 15° N 03:03:11 10° NE visible
30 May - 04:35:19 10° NW 04:38:18 32° NNE 04:41:18 10° E visible
30 May - 06:11:42 10° WNW 06:14:44 36° SW 06:17:46 10° SSE daylight
30 May - 22:50:38 10° SW 22:53:47 53° SE 22:56:58 10° ENE visible
31 May - 00:27:34 10° W 00:30:22 26° NNW 00:33:11 10° NE visible
31 May - 02:05:38 10° NW 02:07:35 15° N 02:09:33 10° NE visible
31 May - 03:42:12 10° NW 03:44:52 23° NNE 03:47:33 10° ENE visible
31 May - 05:18:18 10° WNW 05:21:33 72° SW 05:24:48 10° SE visible
31 May - 21:57:52 10° SSW 22:00:38 27° SE 22:03:27 10° ENE visible
31 May - 23:33:53 10° W 23:36:57 38° NNW 23:40:02 10° NE visible
01 Jun - 01:11:56 10° NW 01:14:02 16° N 01:16:08 10° NNE visible
01 Jun - 02:49:02 10° NNW 02:51:22 18° NNE 02:53:43 10° ENE visible
01 Jun - 04:25:02 10° NW 04:28:17 60° NNE 04:31:31 10° ESE visible
01 Jun - 06:02:16 10° W 06:04:25 16° SW 06:06:29 10° S daylight
01 Jun - 21:05:46 10° SSE 21:07:31 14° SE 21:09:22 10° E daylight
01 Jun - 22:40:23 10° WSW 22:43:36 67° NNW 22:46:51 10° NE visible
02 Jun - 00:18:06 10° WNW 00:20:29 19° NNW 00:22:52 10° NNE visible
02 Jun - 01:55:45 10° NNW 01:57:49 16° N 01:59:53 10° NE visible
02 Jun - 03:31:52 10° NW 03:34:54 35° NNE 03:37:58 10° E visible
02 Jun - 05:08:22 10° WNW 05:11:17 30° SW 05:14:11 10° SSE visible
02 Jun - 21:47:08 10° SW 21:50:20 63° SE 21:53:33 10° ENE visible
02 Jun - 23:24:15 10° WNW 23:26:58 24° NNW 23:29:42 10° NE visible
03 Jun - 01:02:16 10° NW 01:04:13 15° N 01:06:10 10° NE visible
03 Jun - 02:38:43 10° NW 02:41:28 24° NNE 02:44:13 10° ENE visible
03 Jun - 04:14:52 10° WNW 04:18:05 61° SW 04:21:18 10° SE visible
03 Jun - 20:54:13 10° SSW 20:57:07 31° SE 21:00:04 10° ENE daylight
03 Jun - 22:30:30 10° W 22:33:30 34° NNW 22:36:32 10° NE visible
04 Jun - 00:08:34 10° NW 00:10:38 15° N 00:12:40 10° NNE visible
04 Jun - 01:45:32 10° NNW 01:47:56 19° NNE 01:50:22 10° ENE visible
04 Jun - 03:21:33 10° NW 03:24:49 70° NE 03:28:03 10° ESE visible
04 Jun - 04:59:05 10° W 05:00:53 14° SW 05:02:35 10° SSW visible
04 Jun - 20:01:52 10° S 20:03:58 16° SE 20:06:08 10° E daylight
04 Jun - 21:36:54 10° WSW 21:40:07 58° NNW 21:43:19 10° NE visible
04 Jun - 23:14:43 10° WNW 23:17:02 18° NNW 23:19:20 10° NNE visible
05 Jun - 00:52:15 10° NNW 00:54:21 16° N 00:56:29 10° NE visible
05 Jun - 02:28:19 10° NW 02:31:25 39° NNE 02:34:31 10° E visible
05 Jun - 04:04:57 10° WNW 04:07:44 26° SW 04:10:30 10° SSE visible
05 Jun - 20:43:33 10° SW 20:46:47 75° SE 20:50:01 10° ENE daylight
05 Jun - 22:20:50 10° WNW 22:23:29 22° NNW 22:26:07 10° NE visible
05 Jun - 23:58:48 10° NW 00:00:45 15° N 00:02:42 10° NE visible
06 Jun - 01:35:08 10° NW 01:37:57 26° NNE 01:40:47 10° E visible
06 Jun - 03:11:21 10° WNW 03:14:31 51° SW 03:17:41 10° SE visible
06 Jun - 19:50:31 10° SSW 19:53:31 36° SE 19:56:34 10° ENE daylight
06 Jun - 21:27:01 10° W 21:29:57 31° NNW 21:32:55 10° NE daylight
06 Jun - 23:05:07 10° NW 23:07:07 15° N 23:09:07 10° NNE visible
